TimeHST,TemperatureF,Dew PointF,Humidity,Sea Level PressureIn,VisibilityMPH,Wind Direction,Wind SpeedMPH,Gust SpeedMPH,PrecipitationIn,Events,Conditions,WindDirDegrees,DateUTC
12:53 AM,78.1,66.0,66,30.02,10.0,ENE,13.8,-,N/A,,Scattered Clouds,60,2013-09-20 10:53:00
1:53 AM,77.0,64.9,66,30.02,10.0,NE,8.1,-,N/A,,Scattered Clouds,50,2013-09-20 11:53:00
2:53 AM,77.0,66.0,69,30.01,10.0,ENE,10.4,-,N/A,,Partly Cloudy,60,2013-09-20 12:53:00
3:53 AM,77.0,66.0,69,30.00,10.0,ENE,9.2,-,N/A,,Partly Cloudy,60,2013-09-20 13:53:00
4:53 AM,75.9,66.0,71,30.01,10.0,NE,5.8,-,N/A,,Partly Cloudy,50,2013-09-20 14:53:00
5:53 AM,77.0,66.9,71,30.01,10.0,NE,9.2,-,N/A,,Partly Cloudy,50,2013-09-20 15:53:00
6:53 AM,77.0,66.0,69,30.02,10.0,NE,11.5,-,N/A,,Scattered Clouds,50,2013-09-20 16:53:00
7:53 AM,80.1,64.9,60,30.04,10.0,ENE,15.0,-,N/A,,Scattered Clouds,70,2013-09-20 17:53:00
8:53 AM,82.0,64.9,56,30.05,10.0,ENE,17.3,21.9,N/A,,Scattered Clouds,70,2013-09-20 18:53:00
9:53 AM,84.0,64.0,51,30.05,10.0,ENE,18.4,-,N/A,,Scattered Clouds,70,2013-09-20 19:53:00
10:53 AM,84.9,62.1,46,30.05,10.0,ENE,17.3,21.9,N/A,,Scattered Clouds,60,2013-09-20 20:53:00
11:53 AM,84.9,63.0,48,30.03,10.0,NE,16.1,-,N/A,,Scattered Clouds,50,2013-09-20 21:53:00
12:53 PM,84.0,64.0,51,30.02,10.0,ENE,18.4,24.2,N/A,,Mostly Cloudy,60,2013-09-20 22:53:00
1:53 PM,86.0,64.0,48,30.00,10.0,ENE,18.4,24.2,N/A,,Scattered Clouds,70,2013-09-20 23:53:00
2:53 PM,86.0,64.0,48,29.99,10.0,ENE,17.3,25.3,N/A,,Scattered Clouds,60,2013-09-21 00:53:00
3:53 PM,84.9,62.1,46,29.99,10.0,ENE,17.3,25.3,N/A,,Scattered Clouds,60,2013-09-21 01:53:00
4:53 PM,84.0,63.0,49,29.99,10.0,ENE,15.0,20.7,N/A,,Scattered Clouds,60,2013-09-21 02:53:00
5:53 PM,82.0,64.0,54,30.00,10.0,ENE,13.8,21.9,N/A,,Scattered Clouds,70,2013-09-21 03:53:00
6:53 PM,80.1,62.1,54,30.01,10.0,NE,11.5,-,N/A,,Mostly Cloudy,50,2013-09-21 04:53:00
7:53 PM,79.0,64.0,60,30.03,10.0,ENE,15.0,-,N/A,,Scattered Clouds,70,2013-09-21 05:53:00
8:53 PM,78.1,64.9,64,30.04,10.0,ENE,10.4,-,N/A,,Scattered Clouds,70,2013-09-21 06:53:00
9:53 PM,78.1,66.0,66,30.05,10.0,NE,12.7,-,N/A,,Mostly Cloudy,50,2013-09-21 07:53:00
10:53 PM,78.1,64.9,64,30.05,10.0,ENE,12.7,-,0.00,,Scattered Clouds,70,2013-09-21 08:53:00
11:53 PM,78.1,64.9,64,30.04,10.0,NE,12.7,20.7,N/A,,Mostly Cloudy,50,2013-09-21 09:53:00